Location: Ambatotampy
(18.8181°S, 47.6186°E)
Time: 23:20:21
(UTC+00:00)

Cosmos 2233 Rocket - Pass Details

Date: 21 January 2021
Orbit: 953 x 991 km, 82.9° (Epoch: 24 February)

Event Time Altitude Azimuth Distance (km) Brightness Sun altitude
Rises 00:37:11 0° 186° (S) 3,721 7.4 -24.3°
Reaches altitude 10° 00:39:43 10° 187° (S) 2,768 6.7 -23.8°
Maximum altitude 00:46:05 80° 273° (W) 1,012 3.9 -22.6°
Enters shadow 00:51:03 17° 358° (N) 2,249 5.6 -21.6°
